COSMOS 1867

Last updated on Sun Jun 21 2026 00:02:15 GMT+0000 (Coordinated Universal Time)

1 18187U 87060A 26170.99752469 -.00000052 00000+0 17989-4 0 9998 2 18187 65.0114 20.1880 0016587 282.1795 77.7432 14.31515983 34584
UTC large
Height (km)
Speed (km/s)
/
Latitude / Longitude
Inclination (degrees)
Orbital Period (minutes)
Azimuth
Elevation
Range (km)
Doppler Factor

Next 0 passes for location: London (51.5072 / 0.1276)

No passes found over London.
COSMOS 1867